Printer-friendly version

IAU Minor Planet Center

Minor Planet Center

MPEC 2001-V48: 2001 VJ5

The following Minor Planet Electronic Circular may be linked-to from your own Web pages, but must not otherwise be redistributed electronically.


Read MPEC 2001-V47 Read MPEC 2001-V49


M.P.E.C. 2001-V48                                Issued 2001 Nov. 13, 18:54 UT

     The Minor Planet Electronic Circulars contain information on unusual
         minor planets and routine data on comets.  They are published
   on behalf of Commission 20 of the International Astronomical Union by the
          Minor Planet Center, Smithsonian Astrophysical Observatory,
                          Cambridge, MA 02138, U.S.A.

             Prepared using the Tamkin Foundation Computer Network

                              MPC@CFA.HARVARD.EDU
          URL http://cfa-www.harvard.edu/iau/mpc.html  ISSN 1523-6714

                                   2001 VJ5

Observations:
     K01V05J* C2001 11 11.43073 07 36 57.24 +32 18 54.6          18.5        704
     K01V05J  C2001 11 11.44521 07 37 20.95 +32 19 36.1          19.0        704
     K01V05J  C2001 11 11.45970 07 37 44.66 +32 20 16.3          18.9        704
     K01V05J  C2001 11 11.47431 07 38 08.57 +32 20 56.7          18.7        704
     K01V05J  C2001 11 11.48879 07 38 32.30 +32 21 35.9          18.8        704
     K01V05J  C2001 11 12.42648 08 05 45.31 +32 54 25.9          18.0        704
     K01V05J  C2001 11 12.43088 08 05 52.96 +32 54 33.3          18.5        704
     K01V05J  C2001 11 12.44086 08 06 10.37 +32 54 48.3          18.4        704
     K01V05J  C2001 11 12.44533 08 06 18.06 +32 54 54.4          18.9        704
     K01V05J  C2001 11 12.45526 08 06 35.39 +32 55 09.3          18.5        704
     K01V05J  C2001 11 12.45944 08 06 42.68 +32 55 16.5          18.9        704
     K01V05J  C2001 11 12.46967 08 07 00.47 +32 55 30.4          18.4        704
     K01V05J  C2001 11 12.47348 08 07 07.13 +32 55 35.9          18.4        704
     K01V05J  C2001 11 12.48405 08 07 25.53 +32 55 50.5          18.4        704
     K01V05J  C2001 11 12.48765 08 07 31.77 +32 55 54.4          18.7        704

Observer details:
704 Lincoln Laboratory ETS, New Mexico.  Observers M. Blythe, F. Shelly,
    M. Bezpalko, R. Huber, L. Manguso, S. Adams, J. Piscitelli.  Measurers
    J. Stuart, R. Sayer, J. B. Evans, H. Viggh.  1.0-m f/2.15 reflector + CCD.

Orbital elements:
2001 VJ5                                                             PHA 0.023
Epoch 2001 Nov. 7.0 TT = JDT 2452220.5                  MPC
M 342.80493              (2000.0)            P               Q
n   0.36311508     Peri.   66.73930     -0.37127174     -0.92545006
a   1.9458373      Node    45.28295     +0.80835860     -0.36215747
e   0.5637133      Incl.    6.09876     +0.45685192     -0.11128409
P   2.71           H   21.1           G   0.15
From 15 observations 2001 Nov. 11-12.

Ephemeris:
2001 VJ5                 a,e,i = 1.95, 0.56, 6                   q = 0.8489
Date    TT    R. A. (2000) Decl.     Delta      r     Elong.  Phase     V
2001 11 07    05 57.16   +26 58.6    0.097    1.062   135.1    41.2    17.8
2001 11 12    07 53.14   +32 42.1    0.078    1.025   115.1    61.0    17.8
2001 11 17    10 20.40   +30 10.4    0.080    0.991    89.0    86.4    18.6
2001 11 22    11 59.78   +21 59.6    0.101    0.958    70.2   104.1    19.9
2001 11 27    12 53.38   +15 17.9    0.132    0.929    60.7   112.2    20.8
2001 12 02    13 25.01   +10 39.4    0.168    0.904    56.4   114.7    21.5
2001 12 07    13 46.40   +07 16.4    0.206    0.883    54.9   114.1    21.8

Timothy B. Spahr             (C) Copyright 2001 MPC           M.P.E.C. 2001-V48

Read MPEC 2001-V47 Read MPEC 2001-V49


Our Web policy. Index to the CBAT/MPC/ICQ pages.


Valid HTML 4.01!